Flag for Canada Weather past 2 weeks in St. Catharines, Ontario, Canada

Now
75 °F

Mild.


Feels Like: 76 °F
Forecast: 67 / 75 °F
Wind: 13 mph from Southwest

Location: Port Colborne Airport

Current Time: Jul 23, 2014 at 1:52:00 AM

Latest Report: Jul 23, 2014 at 1:00 AM


Visibility: N/A

Pressure: 29.94 "Hg

Humidity: 79%

Dew point: 68 °F

Location of St. CatharinesLocation

Historic Weather in St. Catharines — Graph

°F

St. Catharines temperature yesterday

Maximum temperature yesterday: 76 °F (at 11:00 PM)
Minimum temperature yesterday: 69 °F (at 5:00 AM)
Average temperature yesterday: 71 °F

Past Weeks' High & Low Weather Summary

 TemperatureHumidityPressure
High76 °F (Jul 22, 11:00 PM)93% (Jul 8, 9:00 AM)30.26 "Hg (Jul 8, 9:00 AM)
Low54 °F (Jul 17, 6:00 AM)45% (Jul 10, 7:00 PM)29.51 "Hg (Jul 8, 3:00 PM)
Average68 °F73%30.00 "Hg
* Reported Midnight between Jul 7 and Jul 8 — Midnight between Jul 22 and Jul 23, St. Catharines, Weather by CustomWeather, © 2014

Note: Actual official high and low records may vary slightly from our data, if they occured in-between our weather recording intervals... More about our weather records

Advertising

St. Catharines weather history for previous 24 hours

 ConditionsComfort  
Time TempWeatherWind HumidityBarometerVisibility
12:00 AM
Jul 23
75 °FMild.14 mph78%29.95 "HgN/A
11:00 PM
Jul 22
76 °FMild.14 mph73%29.96 "HgN/A
10:00 PM76 °FMild.15 mph79%29.96 "HgN/A
9:00 PM75 °FMild.14 mph85%29.96 "HgN/A
8:00 PM75 °FMild.9 mph76%29.98 "HgN/A
1:00 PM72 °FMild.7 mph76%30.08 "HgN/A
12:00 PM71 °FMild.6 mph78%30.11 "HgN/A
11:00 AM70 °FMild.5 mph80%30.12 "HgN/A
10:00 AM70 °FMild.3 mph77%30.13 "HgN/A
9:00 AM70 °FMild.5 mph79%30.14 "HgN/A
8:00 AM70 °FMild.7 mph82%30.14 "HgN/A
7:00 AM69 °FMild.8 mph84%30.13 "HgN/A
6:00 AM69 °FMild.6 mph85%30.14 "HgN/A
5:00 AM69 °FMild.1 mph90%30.12 "HgN/A
4:00 AM70 °FMild.5 mph89%30.11 "HgN/A
3:00 AM70 °FMild.5 mph87%30.12 "HgN/A
2:00 AM71 °FMild.5 mph85%30.13 "HgN/A
1:00 AM71 °FMild.3 mph82%30.13 "HgN/A
Weather by CustomWeather, © 2014

See weather overviewHow to use our weather pages